Data for 11/25/2016

Time Sea-Level Adjusted Pressure Absolute Pressure Temperature Relative Humidity Dew Point   
(mb) (inHg) (mb) (inHg) (C) (F) (%) (C) (F)
00:05 1022 30.18 851 25.13 -1.9 28.6 62 -8.2 17.2
00:10 1022 30.18 851 25.13 -2.1 28.2 62 -8.3 17
00:15 1022 30.18 851 25.13 -2.3 27.9 63 -8.4 16.8
00:20 1022 30.18 851 25.13 -2.3 27.9 63 -8.3 17
00:25 1022 30.18 851 25.13 -2.5 27.6 63 -8.5 16.7
00:30 1022 30.18 851 25.13 -2.5 27.6 64 -8.4 16.9
00:35 1022 30.18 851 25.13 -2.6 27.4 64 -8.4 16.8
00:40 1022 30.18 851 25.13 -2.4 27.6 62 -8.7 16.3
00:45 1022 30.18 851 25.13 -2.2 28.1 61 -8.6 16.5
00:50 1022 30.18 851 25.13 -2.2 28.1 62 -8.5 16.7
00:55 1022 30.18 851 25.13 -2.2 28.1 62 -8.6 16.6
01:00 1022 30.18 851 25.13 -2 28.4 61 -8.6 16.5
01:05 1022 30.18 851 25.13 -1.7 29 59 -8.5 16.6
01:10 1022 30.18 851 25.13 -1.6 29.1 60 -8.4 16.9
01:15 1022 30.18 851 25.13 -1.6 29.1 60 -8.5 16.7
01:20 1022 30.18 851 25.13 -1.6 29.1 59 -8.7 16.4
01:25 1022 30.18 851 25.13 -1.5 29.3 59 -8.6 16.6
01:30 1022 30.18 851 25.13 -1.5 29.4 58 -8.6 16.5
01:35 1021 30.15 851 25.13 -1.5 29.3 59 -8.6 16.5
01:40 1021 30.15 851 25.13 -1.6 29.2 59 -8.6 16.6
01:45 1022 30.18 851 25.13 -1.6 29.1 59 -8.6 16.6
01:50 1022 30.18 851 25.13 -1.6 29.2 59 -8.6 16.5
01:55 1022 30.18 851 25.13 -1.5 29.4 59 -8.6 16.6
02:00 1022 30.18 851 25.13 -1.7 28.9 60 -8.5 16.6
02:05 1022 30.18 851 25.13 -2 28.5 60 -8.7 16.4
02:10 1022 30.18 851 25.13 -1.7 28.9 59 -8.7 16.4
02:15 1021 30.15 851 25.13 -1.9 28.6 60 -8.7 16.3
02:20 1021 30.15 851 25.13 -1.9 28.6 60 -8.6 16.5
02:25 1021 30.15 851 25.13 -1.7 28.9 59 -8.8 16.2
02:30 1021 30.15 851 25.13 -1.8 28.8 60 -8.6 16.4
02:35 1021 30.15 851 25.13 -1.9 28.5 59 -8.8 16.1
02:40 1021 30.15 851 25.13 -1.5 29.4 58 -8.7 16.3
02:45 1021 30.15 850 25.1 -1.3 29.7 58 -8.5 16.7
02:50 1021 30.15 850 25.1 -1.5 29.4 59 -8.5 16.7
02:55 1021 30.15 850 25.1 -1.5 29.2 59 -8.5 16.8
03:00 1021 30.15 850 25.1 -1.6 29.2 59 -8.6 16.5
03:05 1021 30.15 850 25.1 -1.3 29.7 58 -8.5 16.6
03:10 1021 30.15 850 25.1 -1.3 29.7 59 -8.4 16.9
03:15 1021 30.15 850 25.1 -1.5 29.2 59 -8.6 16.5
03:20 1021 30.15 850 25.1 -1.4 29.4 58 -8.6 16.5
03:25 1021 30.15 850 25.1 -1.2 29.8 57 -8.6 16.5
03:30 1021 30.15 850 25.1 -1.4 29.5 59 -8.5 16.7
03:35 1021 30.15 850 25.1 -1.5 29.3 58 -8.7 16.3
03:40 1021 30.15 850 25.1 -1.4 29.6 57 -8.8 16.2
03:45 1021 30.15 850 25.1 -1.2 29.8 58 -8.5 16.6
03:50 1021 30.15 850 25.1 -1 30.2 55 -8.9 16
03:55 1021 30.15 850 25.1 -0.7 30.7 55 -8.7 16.4
04:00 1021 30.15 850 25.1 -0.7 30.8 55 -8.7 16.4
04:05 1021 30.15 850 25.1 -0.7 30.7 55 -8.8 16.2
04:10 1021 30.15 850 25.1 -0.6 30.9 55 -8.6 16.5
04:15 1021 30.15 850 25.1 -0.5 31.1 54 -8.7 16.4
04:20 1021 30.15 850 25.1 -0.6 30.9 54 -8.7 16.3
04:25 1021 30.15 850 25.1 -0.7 30.7 55 -8.6 16.6
04:30 1021 30.15 850 25.1 -0.8 30.5 57 -8.3 17.1
04:35 1021 30.15 850 25.1 -1 30.2 56 -8.7 16.3
04:40 1021 30.15 850 25.1 -0.8 30.6 56 -8.4 16.9
04:45 1020 30.12 850 25.1 -0.7 30.7 56 -8.5 16.7
04:50 1021 30.15 850 25.1 -0.6 30.9 55 -8.5 16.7
04:55 1021 30.15 850 25.1 -0.6 31 55 -8.6 16.5
05:00 1020 30.12 850 25.1 -0.3 31.4 53 -8.7 16.3
05:05 1020 30.12 850 25.1 -0.3 31.5 54 -8.5 16.7
05:10 1020 30.12 849 25.07 -0.2 31.6 52 -8.9 16
05:15 1020 30.12 849 25.07 -0 31.9 52 -8.7 16.4
05:20 1020 30.12 849 25.07 -0 31.9 53 -8.6 16.5
05:25 1020 30.12 849 25.07 -0.1 31.8 53 -8.6 16.6
05:30 1020 30.12 849 25.07 -0.1 31.9 52 -8.7 16.4
05:35 1020 30.12 849 25.07 -0.1 31.9 53 -8.6 16.5
05:40 1020 30.12 849 25.07 0.1 32.1 51 -8.9 16
05:45 1020 30.12 849 25.07 0.3 32.5 51 -8.8 16.1
05:50 1020 30.12 849 25.07 0.5 32.9 49 -9.1 15.7
05:55 1020 30.12 849 25.07 0.6 33.1 49 -8.8 16.1
06:00 1020 30.12 849 25.07 0.4 32.8 50 -8.9 16
06:05 1020 30.12 849 25.07 0.4 32.8 50 -8.9 16
06:10 1020 30.12 849 25.07 0.4 32.8 50 -8.8 16.1
06:15 1020 30.12 849 25.07 0.5 32.9 49 -8.9 15.9
06:20 1020 30.12 849 25.07 0.5 32.9 48 -9.2 15.4
06:25 1020 30.12 849 25.07 0.7 33.2 48 -9.2 15.4
06:30 1020 30.12 849 25.07 0.8 33.4 47 -9.2 15.4
06:35 1020 30.12 849 25.07 0.7 33.2 50 -8.7 16.4
06:40 1020 30.12 849 25.07 0.4 32.8 49 -9 15.9
06:45 1020 30.12 849 25.07 0.5 32.9 49 -9.1 15.7
06:50 1020 30.12 849 25.07 0.6 33.1 48 -9.1 15.6
06:55 1020 30.12 849 25.07 0.7 33.3 47 -9.3 15.3
07:00 1020 30.12 849 25.07 0.8 33.4 47 -9.2 15.5
07:05 1020 30.12 849 25.07 0.9 33.6 46 -9.6 14.7
07:10 1020 30.12 849 25.07 1 33.8 46 -9.3 15.3
07:15 1020 30.12 849 25.07 0.9 33.6 47 -9.1 15.7
07:20 1020 30.12 849 25.07 0.7 33.3 48 -9.1 15.6
07:25 1020 30.12 849 25.07 0.6 33.1 50 -8.7 16.4
07:30 1020 30.12 849 25.07 0.4 32.7 50 -8.8 16.2
07:35 1020 30.12 849 25.07 0.2 32.4 52 -8.6 16.5
07:40 1020 30.12 849 25.07 0.2 32.3 51 -8.9 16.1
07:45 1019 30.09 849 25.07 0.2 32.4 51 -8.8 16.1
07:50 1019 30.09 849 25.07 0.4 32.7 49 -9.1 15.5
07:55 1020 30.12 849 25.07 0.6 33 48 -9.1 15.5
08:00 1019 30.09 849 25.07 0.7 33.2 47 -9.3 15.3
08:05 1019 30.09 849 25.07 0.8 33.4 48 -9.1 15.7
08:10 1019 30.09 849 25.07 0.8 33.4 49 -8.8 16.2
08:15 1019 30.09 849 25.07 0.7 33.3 48 -9 15.7
08:20 1019 30.09 849 25.07 0.8 33.4 48 -9 15.9
08:25 1019 30.09 849 25.07 0.8 33.4 47 -9.2 15.5
08:30 1019 30.09 849 25.07 0.8 33.4 50 -8.5 16.7
08:35 1019 30.09 849 25.07 0.6 33.1 50 -8.7 16.3
08:40 1019 30.09 849 25.07 0.6 33.2 49 -8.8 16.2
08:45 1019 30.09 849 25.07 0.7 33.2 50 -8.7 16.4
08:50 1019 30.09 849 25.07 0.7 33.2 48 -9.2 15.4
08:55 1019 30.09 849 25.07 1 33.9 46 -9.5 15
09:00 1019 30.09 849 25.07 1.3 34.3 45 -9.3 15.3
09:05 1019 30.09 848 25.04 1.4 34.6 45 -9.2 15.5
09:10 1019 30.09 848 25.04 1.6 34.9 44 -9.3 15.3
09:15 1019 30.09 848 25.04 1.8 35.2 43 -9.4 15.1
09:20 1019 30.09 848 25.04 1.9 35.5 43 -9.3 15.2
09:25 1019 30.09 848 25.04 2 35.5 44 -9 15.7
09:30 1019 30.09 848 25.04 1.9 35.4 44 -9.1 15.5
09:35 1019 30.09 848 25.04 1.9 35.3 44 -9.2 15.5
09:40 1019 30.09 848 25.04 2 35.7 43 -9.4 15.1
09:45 1019 30.09 848 25.04 2.2 35.9 43 -9.2 15.5
09:50 1019 30.09 848 25.04 2.3 36.2 43 -9.1 15.5
09:55 1019 30.09 848 25.04 2.2 36 43 -9.1 15.6
10:00 1019 30.09 848 25.04 2.3 36.1 42 -9.3 15.2
10:05 1019 30.09 848 25.04 2.4 36.4 43 -9 15.8
10:10 1019 30.09 848 25.04 2.8 37.1 41 -9.2 15.5
10:15 1019 30.09 848 25.04 2.9 37.3 42 -8.8 16.2
10:20 1019 30.09 848 25.04 3.1 37.7 40 -9.1 15.7
10:25 1019 30.09 848 25.04 3.2 37.7 41 -8.7 16.3
10:30 1019 30.09 848 25.04 3.3 37.9 40 -9.1 15.6
10:35 1019 30.09 848 25.04 3.2 37.8 41 -8.9 16
10:40 1019 30.09 848 25.04 3.1 37.6 42 -8.6 16.6
10:45 1019 30.09 848 25.04 2.9 37.2 43 -8.5 16.7
10:50 1019 30.09 848 25.04 2.8 37 44 -8.2 17.3
10:55 1019 30.09 848 25.04 2.6 36.7 43 -8.6 16.5
11:00 1019 30.09 848 25.04 2.6 36.7 44 -8.5 16.6
11:05 1019 30.09 848 25.04 2.7 36.9 45 -8.2 17.3
11:10 1019 30.09 848 25.04 2.6 36.7 43 -8.7 16.4
11:15 1019 30.09 848 25.04 2.5 36.6 44 -8.6 16.5
11:20 1019 30.09 848 25.04 2.7 36.9 42 -9 15.9
11:25 1019 30.09 848 25.04 3 37.4 43 -8.5 16.6
11:30 1019 30.09 848 25.04 3.5 38.3 41 -8.6 16.6
11:35 1019 30.09 848 25.04 4 39.2 39 -8.7 16.4
11:40 1019 30.09 848 25.04 3.7 38.7 40 -8.6 16.5
11:45 1019 30.09 848 25.04 3.9 39 38 -9.3 15.2
11:50 1019 30.09 848 25.04 3.8 38.8 38 -9.4 15
11:55 1019 30.09 848 25.04 4 39.3 38 -9.2 15.5
12:00 1019 30.09 848 25.04 4 39.3 37 -9.4 15.1
12:05 1018 30.06 848 25.04 4.3 39.8 37 -9.2 15.4
12:10 1018 30.06 848 25.04 4.2 39.6 35 -10 14.1
12:15 1018 30.06 848 25.04 4.1 39.3 37 -9.2 15.4
12:20 1018 30.06 848 25.04 4.1 39.5 37 -9.4 15.1
12:25 1018 30.06 848 25.04 4.4 39.9 36 -9.6 14.8
12:30 1018 30.06 847 25.01 4.3 39.8 36 -9.4 15.1
12:35 1018 30.06 847 25.01 4.4 39.9 36 -9.3 15.2
12:40 1018 30.06 847 25.01 4.4 39.9 35 -10 14.1
12:45 1018 30.06 847 25.01 4.4 40 37 -9.2 15.5
12:50 1018 30.06 847 25.01 4.4 40 38 -8.7 16.3
12:55 1018 30.06 847 25.01 4.5 40.2 38 -8.6 16.5
13:00 1018 30.06 847 25.01 4.4 39.9 36 -9.3 15.2
13:05 1018 30.06 847 25.01 4.3 39.7 35 -9.7 14.5
13:10 1018 30.06 847 25.01 4.3 39.7 35 -9.8 14.4
13:15 1018 30.06 847 25.01 4.3 39.7 34 -10.2 13.7
13:20 1018 30.06 847 25.01 4.1 39.5 37 -9.3 15.3
13:25 1018 30.06 847 25.01 4.2 39.5 36 -9.5 15
13:30 1018 30.06 847 25.01 4.3 39.7 36 -9.4 15.1
13:35 1018 30.06 847 25.01 4.2 39.5 37 -9.3 15.2
13:40 1018 30.06 847 25.01 4.3 39.7 35 -9.9 14.2
13:45 1018 30.06 847 25.01 4.3 39.8 37 -9.1 15.6
13:50 1018 30.06 847 25.01 4.3 39.8 38 -8.9 16
13:55 1018 30.06 847 25.01 4.4 39.9 39 -8.4 16.8
14:00 1017 30.03 847 25.01 4.4 39.9 40 -7.9 17.8
14:05 1017 30.03 847 25.01 4.3 39.8 39 -8.3 17
14:10 1017 30.03 847 25.01 4.4 39.9 40 -7.9 17.8
14:15 1017 30.03 847 25.01 4.5 40.1 39 -8.4 16.9
14:20 1017 30.03 847 25.01 4.5 40 40 -8.1 17.4
14:25 1017 30.03 847 25.01 4.5 40 36 -9.2 15.4
14:30 1017 30.03 847 25.01 4.8 40.6 38 -8.5 16.6
14:35 1017 30.03 847 25.01 5 40.9 38 -8.2 17.2
14:40 1017 30.03 847 25.01 5.1 41.2 39 -7.8 17.9
14:45 1017 30.03 847 25.01 5.1 41.1 34 -9.4 15.1
14:50 1017 30.03 847 25.01 5.1 41.2 39 -7.8 17.9
14:55 1017 30.03 847 25.01 5.1 41.2 40 -7.5 18.5
15:00 1017 30.03 847 25.01 5.1 41.2 41 -7.2 19.1
15:05 1017 30.03 847 25.01 4.9 40.9 43 -6.6 20.1
15:10 1017 30.03 847 25.01 4.9 40.8 43 -6.6 20.1
15:15 1018 30.06 847 25.01 4.9 40.9 40 -7.4 18.6
15:20 1018 30.06 847 25.01 5 41.1 40 -7.5 18.6
15:25 1018 30.06 847 25.01 5.1 41.2 40 -7.5 18.5
15:30 1018 30.06 847 25.01 5.1 41.1 34 -9.7 14.5
15:35 1018 30.06 847 25.01 5.5 41.9 32 -9.8 14.3
15:40 1018 30.06 847 25.01 6 42.8 27 -11.7 10.9
15:45 1018 30.06 847 25.01 6.6 43.8 24 -12.8 9
15:50 1018 30.06 847 25.01 7 44.6 25 -11.7 11
15:55 1018 30.06 847 25.01 6.9 44.3 27 -11.1 12
16:00 1018 30.06 847 25.01 6.7 44 27 -10.9 12.5
16:05 1018 30.06 847 25.01 6.5 43.8 28 -10.8 12.5
16:10 1018 30.06 847 25.01 6.1 43 29 -10.7 12.8
16:15 1018 30.06 847 25.01 5.9 42.6 30 -10.5 13.1
16:20 1018 30.06 847 25.01 5.8 42.4 27 -11.9 10.5
16:25 1018 30.06 847 25.01 5.9 42.6 30 -10.6 13
16:30 1018 30.06 847 25.01 5.7 42.2 28 -11.6 11
16:35 1018 30.06 847 25.01 5.9 42.6 26 -12.4 9.6
16:40 1018 30.06 847 25.01 6.2 43.1 26 -12.2 10.1
16:45 1018 30.06 847 25.01 6.2 43.1 28 -11 12.3
16:50 1018 30.06 847 25.01 5.9 42.7 27 -11.6 11.1
16:55 1018 30.06 847 25.01 5.7 42.3 27 -12 10.5
17:00 1018 30.06 847 25.01 5.8 42.5 27 -11.8 10.8
17:05 1018 30.06 847 25.01 5.9 42.6 28 -11.2 11.8
17:10 1018 30.06 847 25.01 5.7 42.3 29 -11.1 12.1
17:15 1018 30.06 847 25.01 5.3 41.6 29 -11.3 11.6
17:20 1018 30.06 847 25.01 5.1 41.1 29 -11.6 11.1
17:25 1018 30.06 847 25.01 5 41 32 -10.3 13.4
17:30 1018 30.06 847 25.01 4.4 39.9 32 -11 12.1
17:35 1018 30.06 847 25.01 4.6 40.3 29 -12 10.4
17:40 1018 30.06 847 25.01 5 41.1 29 -11.7 10.9
17:45 1018 30.06 847 25.01 5 41.1 30 -11.3 11.7
17:50 1018 30.06 847 25.01 4.7 40.5 30 -11.5 11.3
17:55 1018 30.06 847 25.01 4.4 39.9 32 -11 12.1
18:00 1018 30.06 848 25.04 3.8 38.8 35 -10.5 13.2
18:05 1018 30.06 848 25.04 3.5 38.3 34 -11.1 12
18:10 1018 30.06 848 25.04 3.5 38.3 34 -11.1 12.1
18:15 1019 30.09 848 25.04 3.7 38.7 33 -11 12.2
18:20 1019 30.09 848 25.04 3.8 38.8 34 -10.7 12.7
18:25 1019 30.09 848 25.04 3.8 38.8 32 -11.3 11.6
18:30 1019 30.09 848 25.04 3.9 39.1 32 -11.3 11.7
18:35 1019 30.09 848 25.04 3.6 38.5 35 -10.6 12.9
18:40 1019 30.09 848 25.04 3.5 38.4 35 -10.6 12.8
18:45 1019 30.09 848 25.04 3.4 38.2 35 -10.5 13.1
18:50 1019 30.09 848 25.04 3.8 38.9 32 -11.6 11.2
18:55 1019 30.09 848 25.04 3.9 39.1 37 -9.5 14.9
19:00 1019 30.09 848 25.04 3.5 38.4 32 -11.5 11.2
19:05 1018 30.06 848 25.04 4 39.1 37 -9.4 15.2
19:10 1018 30.06 848 25.04 3.5 38.3 38 -9.5 15
19:15 1019 30.09 848 25.04 3.2 37.8 41 -8.7 16.3
19:20 1019 30.09 848 25.04 2.6 36.7 44 -8.4 16.9
19:25 1019 30.09 848 25.04 1.9 35.4 50 -7.5 18.5
19:30 1019 30.09 848 25.04 1.3 34.3 47 -8.8 16.1
19:35 1019 30.09 848 25.04 1.9 35.5 42 -9.7 14.5
19:40 1019 30.09 848 25.04 2.7 36.8 38 -10.4 13.3
19:45 1019 30.09 848 25.04 3.2 37.7 36 -10.5 13.2
19:50 1019 30.09 848 25.04 3.4 38.1 35 -10.8 12.6
19:55 1019 30.09 848 25.04 3.6 38.4 34 -11.1 12.1
20:00 1019 30.09 848 25.04 3.6 38.5 35 -10.4 13.4
20:05 1019 30.09 848 25.04 3.1 37.6 41 -9 15.9
20:10 1019 30.09 848 25.04 2.6 36.6 40 -9.6 14.8
20:15 1019 30.09 848 25.04 2.7 36.9 32 -12.3 9.8
20:20 1019 30.09 848 25.04 4.1 39.5 30 -12.1 10.2
20:25 1019 30.09 848 25.04 4.8 40.7 29 -11.9 10.5
20:30 1019 30.09 848 25.04 5 41 29 -11.5 11.3
20:35 1019 30.09 848 25.04 4.9 40.8 31 -10.7 12.7
20:40 1019 30.09 848 25.04 4.3 39.7 35 -9.9 14.2
20:45 1019 30.09 848 25.04 3.3 38 37 -10.1 13.8
20:50 1019 30.09 848 25.04 3.1 37.6 36 -10.6 13
20:55 1019 30.09 848 25.04 3.2 37.8 32 -11.9 10.6
21:00 1019 30.09 848 25.04 3.8 38.8 33 -11.3 11.7
21:05 1019 30.09 848 25.04 3.6 38.5 33 -11.3 11.6
21:10 1019 30.09 848 25.04 3.6 38.5 31 -12.1 10.2
21:15 1019 30.09 848 25.04 4.3 39.7 29 -12.1 10.2
21:20 1019 30.09 848 25.04 4.2 39.6 31 -11.4 11.4
21:25 1019 30.09 848 25.04 4 39.1 30 -11.9 10.5
21:30 1019 30.09 848 25.04 4 39.3 30 -12.1 10.2
21:35 1019 30.09 848 25.04 4.2 39.5 32 -11.2 11.8
21:40 1019 30.09 848 25.04 3.3 38 38 -9.5 14.9
21:45 1019 30.09 848 25.04 2.4 36.4 40 -10 14
21:50 1019 30.09 848 25.04 2.2 36 39 -10.2 13.6
21:55 1019 30.09 848 25.04 2.4 36.4 37 -10.8 12.6
22:00 1019 30.09 848 25.04 2.9 37.2 36 -10.9 12.5
22:05 1019 30.09 848 25.04 3.1 37.6 34 -11.2 11.8
22:10 1019 30.09 848 25.04 3.2 37.8 35 -10.9 12.4
22:15 1019 30.09 848 25.04 3.1 37.6 36 -10.6 12.9
22:20 1019 30.09 848 25.04 2.8 37 39 -9.9 14.1
22:25 1019 30.09 848 25.04 2.5 36.5 38 -10.3 13.4
22:30 1019 30.09 848 25.04 2.7 36.9 37 -10.6 12.9
22:35 1019 30.09 848 25.04 2.9 37.3 38 -10.1 13.9
22:40 1019 30.09 848 25.04 2.9 37.1 37 -10.3 13.4
22:45 1019 30.09 848 25.04 2.8 37.1 37 -10.4 13.2
22:50 1019 30.09 848 25.04 3 37.3 38 -10 14
22:55 1019 30.09 848 25.04 2.9 37.3 37 -10.5 13
23:00 1019 30.09 848 25.04 3.1 37.5 37 -10.4 13.3
23:05 1019 30.09 848 25.04 2.9 37.3 37 -10.2 13.6
23:10 1019 30.09 848 25.04 2.9 37.3 37 -10.3 13.4
23:15 1019 30.09 848 25.04 3 37.4 38 -10.1 13.8
23:20 1019 30.09 848 25.04 2.8 37.1 38 -10.1 13.9
23:25 1019 30.09 848 25.04 2.9 37.3 38 -10 14.1
23:30 1019 30.09 848 25.04 2.9 37.2 39 -9.9 14.1
23:35 1019 30.09 848 25.04 2.9 37.3 36 -10.6 12.9
23:40 1019 30.09 848 25.04 3.3 37.9 36 -10.4 13.3
23:45 1019 30.09 848 25.04 3.2 37.8 37 -10.3 13.5
23:50 1019 30.09 848 25.04 3.1 37.6 37 -10.2 13.7
23:55 1019 30.09 848 25.04 3 37.5 37 -10.1 13.7
24:00 1018 30.06 848 25.04 2.9 37.2 39 -9.9 14.2